Location: Hawthorne Hill
(42.7979°N, 73.8801°W)
Time: 14:23:28
(UTC+00:00)

Daily predictions for brighter satellites

Satellite Brightness Start Highest point End
(mag) Time Altitude Azimuth Time Altitude Azimuth Time Altitude Azimuth
Cosmos 1939 Rocket 3.3 21:45:32 10° SE 21:49:23 41° ENE 21:53:14 10° N
Meteor 1-31 Rocket 4.4 21:45:55 10° SSW 21:49:28 39° W 21:53:05 10° NNW
Cosmos 841 Rocket 3.6 21:49:46 10° S 21:54:48 56° ESE 21:59:50 10° NNE
Meteor 1-25 Rocket 4.2 21:49:56 10° N 21:55:32 73° E 22:01:08 10° SSE
Cosmos 2278 4.4 21:50:44 10° N 21:55:53 33° NE 22:00:58 10° ESE
Cosmos 1500 3.8 21:52:38 10° N 21:56:03 32° ENE 21:59:25 10° SE
Cosmos 1833 Rocket 3.0 21:52:41 10° SSW 21:58:17 71° WNW 22:03:56 10° NNE
CZ-2C R/B 2.9 21:53:24 10° SSE 21:58:18 89° WSW 22:03:05 10° NNW
Cosmos 1634 Rocket 4.2 21:55:19 10° SSE 22:01:28 56° E 22:07:38 10° NNE
USA 267 3.3 21:55:08 10° NE 22:01:43 89° NW 22:08:15 10° SW
Cosmos 1782 3.0 21:57:54 10° S 22:01:46 50° E 22:05:38 10° NNE
H-2A R/B 2.7 21:57:53 10° SE 22:02:19 30° ENE 22:06:40 10° N
CZ-2D R/B 4.2 21:59:52 10° SE 22:03:04 26° ENE 22:06:16 10° NNE
Cosmos 1937 Rocket 3.5 21:58:13 10° NNW 22:03:35 76° ENE 22:08:52 10° SSE
Cosmos 2026 Rocket 4.0 21:59:10 10° N 22:05:14 61° E 22:11:12 10° SSE
Cosmos 2221 4.4 22:02:02 10° SW 22:05:49 30° WNW 22:09:39 10° NNW
Cosmos 1500 Rocket 4.0 22:01:30 10° NNW 22:05:54 67° W 22:10:14 10° S
Cosmos 372 Rocket 4.1 22:02:34 10° N 22:07:42 53° ENE 22:12:49 10° SE
COSMOS 2406 3.4 22:02:48 10° SSW 22:08:33 76° WNW 22:14:18 10° NNE
Cosmos 2195 Rocket 4.5 22:03:12 10° N 22:09:23 78° E 22:15:36 10° SSE
Sich 1 3.0 22:05:55 10° N 22:10:10 60° E 22:14:27 10° SSE
CZ-2C R/B 3.5 22:09:36 10° NE 22:13:56 27° E 22:18:15 10° SSE
Cosmos 1340 Rocket 4.5 22:10:35 10° NNW 22:14:23 38° W 22:18:11 10° SSW
Cosmos 1809 Rocket 4.4 22:10:03 10° N 22:16:11 82° E 22:22:15 10° S
SL-08 R/B 4.5 22:13:12 10° N 22:17:37 42° WNW 22:21:57 10° SW
Cosmos 1805 Rocket 3.6 22:13:43 10° N 22:18:04 86° W 22:22:24 10° S
Meteor 2-21 Rocket 4.5 22:15:48 10° N 22:21:49 57° ENE 22:27:44 10° SSE
NOAA 6 4.0 22:18:49 10° SSE 22:23:56 88° E 22:29:06 10° NNW
Lacrosse 5 rocket 2.4 22:20:39 10° NNW 22:23:58 26° NNE 22:26:08 17° ENE
CZ-4B R/B 3.6 22:20:09 10° SE 22:25:04 37° ENE 22:29:56 10° N
Cosmos 1666 3.0 22:21:37 10° N 22:25:08 38° ENE 22:28:37 10° SSE
MOS 1-B Rocket 4.3 22:25:16 10° NNE 22:31:14 57° ESE 22:38:07 10° S
SL-24 R/B - RUBIN 2 3.5 22:27:32 10° NW 22:32:02 88° WSW 22:36:20 10° SSE
PAYLOAD B 4.2 22:26:35 10° SSE 22:32:06 62° ENE 22:37:38 10° N
Cosmos 540 Rocket 4.3 22:28:49 10° SW 22:33:45 50° WNW 22:38:44 10° N
USA 234 3.3 22:27:43 10° ESE 22:34:10 66° NE 22:40:39 10° NW
PSLV R/B 3.5 22:35:24 10° SSE 22:39:04 80° ENE 22:42:48 10° N
Cosmos 2360 Rocket 3.7 22:39:34 10° N 22:42:46 16° NE 22:42:46 16° NE
Cosmos 921 Rocket 3.3 22:42:19 10° S 22:46:16 43° ESE 22:48:25 24° NE
Cosmos 1812 2.9 22:46:25 10° SSW 22:50:15 71° W 22:54:06 10° N
SL-08 RB Rocket 4.3 22:49:04 10° SE 22:53:15 34° ENE 22:57:24 10° N
CZ-2C R/B 3.1 22:51:38 10° SW 22:55:00 23° SSE 22:56:54 17° SE
COSMO-SKYMED 1 2.5 22:51:33 14° NNE 22:55:17 61° E 22:59:35 10° S
USA 305 4.1 22:52:37 10° NW 22:56:08 24° NNE 22:56:39 24° NNE
Cosmos 1814 Rocket 4.3 22:51:07 10° SSW 22:56:19 69° WNW 23:01:29 10° NNE
Cosmos 1570 Rocket 4.1 22:52:47 10° SSW 22:58:01 77° WNW 23:03:08 11° NNE
Meteor 1-10 Rocket 4.3 22:52:34 10° S 22:58:11 55° E 23:03:43 10° NNE
Cosmos 1633 Rocket 3.0 22:55:09 10° N 22:59:33 88° W 23:03:56 10° S
COSMOS 2455 3.8 22:54:39 10° SW 23:00:23 44° NW 23:06:07 10° NNE
Meteor 1-11 Rocket 4.0 22:55:49 10° N 23:01:11 43° ENE 23:06:37 10° SE
CZ-4 R/B 4.5 22:57:21 10° SSE 23:01:22 53° ENE 23:05:25 10° N
Helios 1B 4.4 22:59:18 16° NNE 23:02:41 71° ESE 23:07:00 10° S
Cosmos 1151 Rocket 3.5 22:58:26 10° SSW 23:02:42 62° W 23:07:03 10° N
Meteor 2-16 Rocket 4.5 22:56:47 10° N 23:02:56 83° W 23:09:03 10° S
X-37B 1.6 23:01:04 10° SW 23:03:24 30° SSE 23:03:24 30° SSE
Cosmos 2298 Rocket 4.1 22:59:20 10° NNW 23:04:33 54° ENE 23:09:46 10° SE
Cosmos 2322 Rocket 2.8 22:59:52 10° N 23:05:03 34° NE 23:05:58 32° ENE
Cosmos 1980 Rocket 3.2 23:04:04 10° NW 23:09:30 49° WSW 23:14:52 10° S
Landsat 5 3.2 23:14:49 47° NE 23:15:52 71° ESE 23:19:46 10° S
DMSP B5D2-2 4.4 23:17:37 40° E 23:17:37 40° E 23:22:31 10° SSE
Feng Yun 1-1 Rocket 4.4 23:12:07 10° SSE 23:17:53 57° ENE 23:23:37 10° N
Cosmos 1818 3.5 23:12:45 10° NNW 23:18:16 84° ENE 23:22:57 14° SE
ISS -2.4 23:16:03 10° WNW 23:19:14 38° SW 23:20:29 27° S
Meteor 2-15 Rocket 4.3 23:13:54 10° S 23:19:59 70° E 23:26:04 10° NNE
CZ-4C R/B 3.3 23:13:31 10° NW 23:20:57 73° WSW 23:29:30 10° SSE
SL-16 R/B 2.1 23:18:52 10° NNW 23:24:31 62° ENE 23:27:08 31° SE
Cosmos 2082 Rocket 3.7 23:20:12 10° WSW 23:25:16 33° NW 23:30:22 10° N
Okean O Rocket 1.7 23:20:58 10° S 23:25:25 79° WSW 23:29:54 10° NNW
USA 306 4.2 23:24:47 10° NW 23:27:36 28° N 23:27:36 28° N
Cosmos 1470 Rocket 3.8 23:26:27 10° NNW 23:30:54 70° W 23:35:21 10° S
ARGOS 3.3 23:25:54 10° S 23:31:18 74° WSW 23:36:43 10° NNW
Cosmos 44 Rocket 3.3 23:27:22 10° NW 23:32:16 75° WSW 23:34:46 28° SSE
GEOS 3 Rocket 4.3 23:33:57 36° NNE 23:33:57 36° NNE 23:37:53 10° NNW
Cosmos 2266 Rocket 4.0 23:26:41 10° N 23:33:07 89° ENE 23:39:33 10° S
Aureole 3 Rocket 3.2 23:32:53 10° S 23:37:00 71° E 23:37:00 71° E
Cosmos 2333 Rocket 4.1 23:35:51 10° N 23:37:11 15° N 23:37:11 15° N
Cosmos 1867 3.5 23:35:17 10° SSW 23:40:41 67° ESE 23:40:50 66° ESE
Cosmos 2150 Rocket 4.0 23:35:44 10° NNW 23:40:56 79° WSW 23:46:11 10° SSE
H-2A R/B 3.7 23:37:00 10° SSW 23:41:39 34° W 23:46:13 10° NNW
USA 267 4.2 23:41:27 25° NNE 23:44:15 37° NNW 23:50:07 10° W
ATLAS CENTAUR R/B 4.1 23:39:16 10° W 23:44:23 20° NW 23:45:46 18° N
USA 32 4.0 23:44:16 10° S 23:49:28 81° W 23:51:15 43° N
Spot 2 4.4 23:44:36 10° SSE 23:49:45 88° ENE 23:54:53 10° NNW
Cosmos 1125 Rocket 3.7 23:47:08 10° NNW 23:52:22 68° WSW 23:56:49 14° S
CZ-2C R/B 3.8 23:49:33 10° N 23:54:19 38° WNW 23:59:03 10° SW
